CZ-6A DEB, 60898

Orbit data source: Space-Track

CZ-6A DEB, 60898 is space debris in LEO originally from a launch on Tue, 06 Aug 2024 UTC launched from the Taiyaun Space Center, China (TSC). Debris objects in space refer to the collection of defunct objects orbiting the Earth. Examples of debris include non-operational satellites, rocket bodies, and fragments generated from explosions, collisions, or faulty payload assembly.

Loading next visibility...
Identifier
60898, 2024-140LD
Orbit
LEO
Country
Flag of CNCN / PRC
Related business
Manufacturer
SAST
Mission
Spacecraft
Bus & Motor
Unknown
Mass
Unknown
Launch date (UTC)
2024-08-06 (2 years ago)
Launch vehicle
Unknown
Launch site
Taiyaun Space Center, China (TSC)
Object type
Payload
Rocket body
Debris
Shape & HBR
Unknown shape, 0.2 m
Radar Cross Section
Medium (>0.1 m² and <1 m²)

Expand to show TLE details & history
Last TLE update: 9 hours ago

TLE from 9 hours ago
0 CZ-6A DEB
1 60898U 24140LD  26171.46837965  .00006996  00000-0  10037-2 0  9990
2 60898  88.6747 241.1356 0156059 144.1913 216.9890 14.68304388 98001
Epoch: 2026-06-20T11:14Z
TLE epoch observation values (Epoch: 2026-06-20T11:14:28.001Z)
Latitude
-0.00008°
Longitude
163.83636°
Altitude
758.051 km
Speed
7.428 km/s
True Right ascension
16h 04m 32s
True Declination
0° 00' 00"
Sunlit
Object was in full shadow at epoch
Visualization orbit readout
Latitude
Unknown
Longitude
Unknown
Altitude
Unknown
Speed
Unknown
Apparent Right ascension
Unknown
Apparent Declination
Unknown
Sunlit
N/A
Visualization observer readout
Local Sidereal Time
07:21:14
Azimuth
Unknown
Elevation
Unknown
Doppler factor
Unknown
Orbital elements
Apogee altitude
773.259 km
Perigee altitude
553.481 km
Semi-major axis
7,041.507 km
Eccentricity
0.01561
Inclination
88.6747°
RAAN
241.1356°
Arg. of periapsis
144.1913°
True anomaly
215.92962°
Mean anomaly
216.989°
Eccentric anomaly
216.45767°
Mean motion
3.6732 °/min
Orbital period
98.01 mins
BSTAR
0.0010037
Loading maneuver chart data...
Computing Atmospheric mass density...
Loading historical data...
Loading historical data...
Loading historical data...
Loading historical data...
Loading historical data...
Loading historical data...
Loading historical data...

Documentation

Showing up to 5 results
|